Resultados de la I Carrera Solidaria de Entreculturas – Pedro Abad

Ya disponibles los resultados de la I Carrera Solidaria de Entreculturas “Pedro Abad”, celebrada el pasado sábado 27 de enero en Pedro Abad (Córdoba).

Clasificación General Masculina

Pos.Dor.NombreCat.Pos.TiempoT/Km.Dif.
1120ANTONIO, ROMAN COBACHOCARM1 19:03.8703:11
222ANDRES, BRAVO JIMENEZCARM2 19:34.4303:160:00:30
327FERNANDO, LOPEZ MART?NEZCARM3 19:43.1003:170:00:39
4118JOAQUIN, DE LA VEGACARM4 19:51.0303:190:00:47
528JOSE LUIS, MARTIN ROJASCARM5 19:52.9303:190:00:49
644DIEGO, BARQUERO AGUILARCARM6 20:22.7803:240:01:19
791SAMUEL, RUIZ REJANOCARM7 20:29.1203:250:01:25
867MANUEL, VIDAL GUERREROCARM8 20:45.2403:280:01:41
968FRANCISCO, MUÑOZ ENRIQUEZCARM9 21:33.6303:360:02:30
1098SEBASTIAN, CARCELO MUÑOZCARM10 21:34.3903:360:02:30
1194JUAN, MARISCAL AMATECARM11 21:36.1203:360:02:32
1260RAFAEL ANGEL, REDONDO CANALESCARM12 21:42.5503:370:02:39
1351BARTOLOME, LOPEZ BENITEZCARM13 21:44.5003:370:02:41
1497JUAN ANTONIO, REYES CUADRADOCARM14 22:02.0703:400:02:58
15117ALFONSO, RUIZ LAINCARM15 22:09.5503:420:03:06
1678RAFAEL, GARCIA CAZORLACARM16 22:14.5603:420:03:11
1721AGUSTIN, PALOMARES CAÑETECARM17 22:19.0703:430:03:15
18115JAVIER, ANGUITA MUÑOZCARM18 22:21.8303:440:03:18
1934FRANCISCO JAVIER, ROLDAN RAMOSCARM19 22:39.5203:470:03:36
2059ANTONIO, GARCIA GAITANCARM20 22:45.0603:480:03:41
2113DAVID, CASAN CORTESCARM21 22:46.3803:480:03:42
2218JUAN, PARRAS MOYACARM22 22:48.9003:480:03:45
2356PEDRO ANTONIO, TUR GARCIACARM23 22:53.9103:490:03:50
2432JUAN, GONZALEZ ALMIRONCARM24 22:54.2403:490:03:50
2525FRANCISCO JAVIER, MARTIN ROJASCARM25 23:07.7203:510:04:04
2610JUAN, AGUILAR LLAMASCARM26 23:12.1603:520:04:08
2739FRANCISCO, ARENAS ALONSOCARM27 23:13.4803:520:04:09
2871FRANCISCO, LUCENO VALERACARM28 23:27.1603:550:04:23
2990RAFAEL, POLO ROSALCARM29 23:44.6403:570:04:41
3040FRANCISCO JESUS, ALONSO DIAZCARM30 23:47.5003:580:04:43
31121ANDRES, ROMAN PRIETOCARM31 24:05.3604:010:05:01
3270JUAN, JURADO LARRUBIACARM32 24:13.5904:020:05:10
3355FRANCISCO, ARENAS RAMOSCARM33 24:40.3104:070:05:36
3435ANDRES, CUENCA LUQUECARM34 24:42.8504:070:05:39
3533MANUEL, GAVILAN ZURITACARM35 24:55.3604:090:05:51
36152ERNESTO, SANCHEZ LOZANOCARM36 25:02.9304:100:05:59
37154CRISTOBAL, PEREZ MONTEROCARM37 25:03.4804:110:05:59
3846ENRIQUE, AGUILAR MEDINACARM38 25:20.4404:130:06:16
39127SERGIO, MARTOS OLMOCARM39 25:25.8304:140:06:22
40113RAFAEL, GONZALEZ MESACARM40 25:36.1304:160:06:32
4153JUAN, AVILA SALINASCARM41 25:48.7404:180:06:45
4263GONZALO, LOPEZ OROZCOCARM42 26:02.2604:200:06:58
4376MIGUEL ANGEL, SANCHEZ MIRALLESCARM43 26:06.4104:210:07:02
4415ANTONIO, FERNANDEZ CASASCARM44 26:08.4004:210:07:04
4512FERNANDO, LORENZO MORENOCARM45 26:24.4904:240:07:20
4665FRANCISCO, DE LA FUENTECARM46 26:30.7004:250:07:27
47101BARTOLOME, RIVERA SANCHEZCARM47 26:39.0604:270:07:35
4831JUAN, GONZALEZ PEREZCARM48 27:05.7404:310:08:02
4993JUAN ANDRES, MUÑOZ MORACARM49 27:24.6904:340:08:21
50123JUAN FERNANDO, CASTILLA LOPEZCARM50 27:29.3704:350:08:25
5188JOSE RAMON, SOLA SEGURACARM51 27:35.1004:360:08:31
5242AMADOR ENRIQUE, GALAN ZARCOCARM52 27:51.8404:390:08:48
5366ANTONIO, SOTILLO LARRUBIACARM53 28:42.4504:470:09:38
5457FERNANDO, TORRERO SANTOSCARM54 28:46.9504:480:09:43
55131ALFREDO, RUIZ GIMENEZCARM55 28:54.2704:490:09:50
5679ANDRES, ORGAZ GARCIACARM56 28:56.2504:490:09:52
5761ALFONSO, ROJAS BAENACARM57 28:58.4604:500:09:54
5841ANDRES JESUS, CEBALLOS MARINCARM58 29:10.2404:520:10:06
5916PEDRO ANTONIO, AGUILERA QUERALTACARM59 29:15.0804:530:10:11
6017ISRAEL, RAMIREZ ANGUITACARM60 29:37.5604:560:10:34
6181JOSE MARIA, GARCIA NICOTCARM61 30:47.7605:080:11:44
62132ALFREDO, RUIZ CAMACHOCARM62 31:13.0405:120:12:09
6369ALFONSO, PRIEGO PALACIOSCARM63 31:18.3005:130:12:14
6484PEDRO, SUAREZ MENGUALCARM64 31:20.0705:130:12:16
6530PEDRO, MOLLEJA MARTINEZCARM65 31:22.0505:140:12:18
6629FERNANDO, JURADO CASTILLOCARM66 31:26.5805:140:12:23
67103BARTOLOME, SOLIS OBREROCARM67 31:27.3305:150:12:23
6886MANUEL, MOLLEJA SOTOCARM68 31:30.5305:150:12:27
69106JOSE ANTONIO, GRANADOS TORRECARM69 31:54.6505:190:12:51
7045EMILIO JOSE, NAVARRO CALLEJACARM70 33:10.2605:320:14:06
7120ALFONSO, GALAN CABELLOCARM71 34:09.9805:420:15:06
7237JUAN JOSE, DEL PINO ROMEROCARM72 36:25.0406:040:17:21
7311FRANCISCO JOSE, GONZALEZ RUIZCARM73 36:36.0506:060:17:32
74124FELIX, RODRIGUEZ GALANCARM74 36:49.5606:080:17:46

Clasificación General Femenina

Pos.Dor.NombreCat.Pos.TiempoT/Km.Dif.
1153MARIA LUISA, BAENA SARMIENTOCARF1 25:00.7204:10
289MARIANA, CEREZO CASÁNCARF2 27:32.4504:350:02:31
352CHARO, CUADRA ROJASCARF3 28:09.9804:420:03:09
458EVA, ORTEGA BALLESTEROSCARF4 28:44.4204:470:03:43
5126ISABEL, MÍNGUEZ OTEROCARF5 30:35.5105:060:05:35
674MARIA TERESA, ROJAS BOQUIZOCARF6 30:50.8305:080:05:50
785GISELA, LEIROS LEÓNCARF7 31:24.5905:140:06:24
8104LAURA, GRANADOS MOLLEDACARF8 31:43.1205:170:06:42
987PILAR, PÉREZ LARACARF9 31:52.0905:190:06:51
10105CAROLINA, MOLLEDA JIMENACARF10 32:06.6905:210:07:06
1119ANA, CHICA MEDINACARF11 34:08.8405:410:09:08
1243MARIA ANGELES, JEREZ RODRIGUEZCARF12 34:25.9905:440:09:25
1396PALOMA, POLO CÓRDOBACARF13 36:32.8806:050:11:32
14125CARMEN MARIA, AGUILAR CEREZOCARF14 36:55.1806:090:11:54
       

About The Author

Somos TempoSport, una empresa joven con sede en la localidad de Los Rosales (Sevilla), dirigida por grandes profesionales y amantes del deporte, con gran experiencia en el mundo del ocio y el deporte.

Leave A Comment

Últimas noticias

 
II Carrera Solidaria Nocturna de Los Rosales
La Hermandad del Santísimo Cristo de la Expiración y Nuestra Señora del Patrocinio organiza en Tocina organiza el próximo 5 de julio la II Carrera Solidaria Nocturna Los Rosales a beneficio de Cáritas Parroquial. La prueba deportiva consiste en una carrera a pie por diversas calles del municipio entre los dos núcleos de población, recorriendo

Sobre Nosotros

 

TempoSport se centra en la gestión, creación y organización de eventos deportivos.

Además de gestionar nuestros propios eventos, prestamos servicio a terceros de cronometraje, gestión de inscripciones, infraestructuras (arco y reloj de meta, megafonía, bóxer triatlón, etc..), material bolsa del corredor, trofeos, creación de páginas web, etc...

¡En TempoSport siempre estamos a tu servicio!

Próximos Eventos

 

No hay eventos programados en este momento

Galería de Fotos

 

Contacta

 

Estamos disponibles las 24 horas, los 7 días de la semana. No dudes en contactarnos:

Teléfono: +34 620 998 733
Email: info@temposport.es
Dirección: Avda. Sevilla, 43 local A
41330 Los Rosales (Sevilla)